Flag for Sweden Weather past 2 weeks in Gävle, Sweden

Now
60 °F

Refreshingly cool.


Feels Like: 60 °F
Forecast: 36 / 59 °F
Wind: 3 mph from Southeast

Location: Films Kyrkby


UV Index: 0 (Low)

Visibility: 22 mi


Pressure: 30.28 "Hg

Humidity: 49%

Dew point: 40 °F

Location of GävleLocation

Historic Weather in Gävle

°F

Gävle temperature yesterday

Maximum temperature yesterday: 60 °F (at 4:00 PM)
Minimum temperature yesterday: 33 °F (at 6:00 AM)
Average temperature yesterday: 46 °F

Past Weeks' High & Low Weather Summary

 TemperatureHumidityPressure
High60 °F (Apr 19, 4:00 PM)98% (Apr 8, 4:00 AM)30.33 "Hg (Apr 8, 4:00 AM)
Low20 °F (Apr 10, 4:00 AM)18% (Apr 5, 4:00 PM)29.26 "Hg (Apr 13, 5:00 PM)
Average42 °F74%29.88 "Hg
* Reported Apr 5 12:00 Noon — Apr 20 12:00 Noon, Gävle, Weather by CustomWeather, © 2014

Note: Actual official high and low records may vary slightly from our data, if they occured in-between our weather recording intervals... More about our weather records

Advertising

Historic Weather Conditions — Data for Previous 24 hours

 ConditionsComfort  
Time TempWeatherWind HumidityBarometerVisibility
12:00 PM
Apr 20
60 °FRefreshingly cool.3 mph49%30.28 "Hg22 mi
11:00 AM59 °FRefreshingly cool.3 mph50%30.29 "Hg22 mi
10:00 AM57 °FRefreshingly cool.2 mph57%30.29 "Hg22 mi
9:00 AM54 °FCool.1 mph68%30.29 "Hg25 mi
8:00 AM48 °FCool.No wind87%30.29 "Hg19 mi
7:00 AM35 °FChilly.No wind97%30.29 "Hg11 mi
6:00 AM30 °FFog.No wind97%30.28 "Hg5 mi
5:00 AM30 °FFog.No wind97%30.27 "Hg6 mi
4:00 AM31 °FFog.No wind96%30.27 "Hg4 mi
3:00 AM33 °FFog.No wind96%30.27 "Hg4 mi
2:00 AM34 °FFog.No wind96%30.27 "Hg5 mi
1:00 AM35 °FChilly.No wind97%30.27 "Hg9 mi
12:00 AM37 °FChilly.No wind95%30.26 "Hg7 mi
11:00 PM
Apr 19
40 °FChilly.No wind93%30.26 "Hg19 mi
10:00 PM43 °FQuite cool.No wind87%30.25 "Hg31 mi
9:00 PM47 °FCool.1 mph79%30.25 "Hg31 mi
8:00 PM53 °FCool.1 mph64%30.24 "Hg31 mi
7:00 PM59 °FRefreshingly cool.1 mph49%30.23 "Hg31 mi
6:00 PM60 °FRefreshingly cool.2 mph47%30.23 "Hg25 mi
5:00 PM60 °FRefreshingly cool.2 mph48%30.24 "Hg22 mi
4:00 PM60 °FRefreshingly cool.2 mph50%30.25 "Hg31 mi
3:00 PM60 °FRefreshingly cool.2 mph52%30.26 "Hg25 mi
2:00 PM58 °FRefreshingly cool.3 mph57%30.27 "Hg25 mi
1:00 PM57 °FRefreshingly cool.3 mph58%30.29 "Hg25 mi
Weather by CustomWeather, © 2014

See weather overview